[[{"header":{"parameterUnit":"m.s-1","parameterCategory":2,"la1":30.2991,"la2":30.254,"lo1":-89.0895,"lo2":-89.0444,"dy":0.0017,"dx":0.0017,"nx":28,"ny":28,"refTime":"2023-08-08T21:00:00:Z","depth":"0","parameterNumber":2,"parameterNumberName":"U-component_of_CURRENTS"},"data":[0,0,0,0,0,0,0,0,0,0,0,0,0,0,0,0,0,0,0,0,0,0,0,0,0,0,0,0,0,0,0,0,0,0,0,0,0,0,0,0,0,0,0,0,0,0,0,0,0,0,0,0,0,0,0,0,0,0,0.2587,0.2588,0,0.2711,0.2713,0.2714,0.2779,0.2778,0.2778,0.2778,0.2847,0.2849,0.2851,0,0,0,0,0,0,0,0,0,0,0,0,0,0.2652,0.2649,0.2587,0.2588,0.2589,0.2711,0.2713,0.2715,0.2779,0.2778,0.2778,0.2778,0.2846,0.2849,0.2851,0,0,0,0,0,0,0,0,0,0,0,0,0,0.2686,0.2648,0.2586,0.2634,0.264,0.2711,0.2713,0.2715,0.2779,0.2778,0.2778,0.2778,0.2846,0.2849,0.2851,0.2872,0,0,0.286,0.2861,0,0,0,0,0,0,0,0,0.2683,0.2683,0.2626,0.2631,0.2637,0.2727,0.2761,0.2764,0.2779,0.2728,0.2778,0.2778,0.2801,0.2807,0.2835,0.2876,0.2879,0.286,0.2862,0.2864,0.2864,0,0,0,0,0,0,0,0.268,0.268,0.2638,0.2627,0.2634,0.2735,0.2737,0.2764,0.2764,0.2732,0.2737,0.2748,0.2804,0.2832,0.2837,0.288,0.286,0.2863,0.2865,0.2866,0.2936,0.2936,0,0,0,0,0,0,0.2648,0.2675,0.2634,0.2641,0.2658,0.2732,0.2736,0.27,0.2765,0.2775,0.2748,0.275,0.2827,0.2833,0.2839,0.2844,0.2863,0.2866,0.2868,0.2936,0.2936,0.2936,0,0,0,0,0,0,0.2648,0.2641,0.2629,0.2664,0.2669,0.2729,0.2691,0.2703,0.2732,0.2777,0.2786,0.2764,0.2827,0.2835,0.2858,0.2848,0.2868,0.287,0.2936,0.2936,0.2936,0.2868,0,0,0,0,0,0,0.2648,0.2639,0.2608,0.2659,0.2665,0.2667,0.2691,0.2705,0.2738,0.2742,0.2794,0.28,0.2828,0.2853,0.286,0.2852,0.2872,0.2935,0.2936,0.2936,0.2871,0.2866,0.2863,0,0,0,0,0,0.2649,0.2587,0.2604,0.2601,0.2616,0.2667,0.268,0.2727,0.2738,0.2753,0.278,0.2799,0.286,0.2855,0.2864,0.2856,0.2935,0.2936,0.2936,0.2872,0.2867,0.2863,0,0,0,0,0,0,0.257,0.259,0.2609,0.2547,0.2609,0.2677,0.2684,0.2724,0.2762,0.2757,0.28,0.2809,0.2822,0.2854,0.2848,0.2879,0.2901,0.2903,0.285,0.2845,0.2841,0.2821,0.2875,0,0,0,0,0,0.2545,0.2507,0.257,0.2517,0.255,0.2622,0.2648,0.2687,0.2727,0.2745,0.2783,0.2814,0.2833,0.2849,0.2874,0.2895,0.2908,0.2897,0.2893,0.2889,0.2881,0.2896,0.2892,0.2937,0.2937,0.2937,0,0,0.2477,0.2499,0.2463,0.2502,0.2549,0.259,0.2637,0.2669,0.27,0.2743,0.2778,0.2799,0.2834,0.2851,0.2861,0.2875,0.2882,0.289,0.2886,0.2879,0.2896,0.2892,0.2887,0.2937,0.2937,0.2937,0,0,0.238,0.2372,0.2346,0.2411,0.2493,0.2546,0.2556,0.2639,0.2676,0.272,0.2743,0.275,0.2812,0.2819,0.2833,0.2824,0.2855,0.2845,0.2814,0.2829,0.2825,0.2822,0.2819,0.2816,0.2849,0.2849,0.2849,0,0.233,0.2305,0.2348,0.2389,0.2436,0.2523,0.2552,0.2602,0.2679,0.2697,0.272,0.2771,0.2789,0.2792,0.2787,0.281,0.2829,0.2824,0.2821,0.2819,0.2816,0.2814,0.2812,0.2846,0.2846,0.2847,0.2847,0,0.2243,0.2264,0.2262,0.2336,0.238,0.2422,0.2512,0.2552,0.2605,0.2652,0.2679,0.2712,0.2738,0.2746,0.2764,0.2757,0.2778,0.2807,0.2826,0.2807,0.2807,0.2805,0.2841,0.2842,0.2843,0.2844,0,0,0.2108,0.2187,0.2206,0.2253,0.2376,0.2399,0.2448,0.2521,0.2522,0.2607,0.2611,0.2647,0.2665,0.2681,0.2705,0.2716,0.27,0.2756,0.2758,0.2739,0.273,0.2547,0.2528,0.2741,0.274,0.274,0.273,0,0.2079,0.211,0.2166,0.2219,0.2268,0.2366,0.2394,0.2452,0.2501,0.2521,0.2577,0.258,0.2646,0.2633,0.2664,0.2692,0.2697,0.2699,0.2764,0.2765,0.2593,0.252,0.2407,0.2372,0.2729,0.2729,0.2729,0,0.2035,0.2083,0.2102,0.2194,0.2217,0.2238,0.229,0.2326,0.2377,0.2407,0.2445,0.2489,0.2521,0.2566,0.2637,0.2646,0.2677,0.2703,0.2704,0.2553,0.2577,0.2454,0.2356,0.2311,0.2727,0.2727,0.2727,0,0.1959,0.2056,0.2057,0.2099,0.2191,0.2201,0.2234,0.2277,0.23,0.2315,0.2307,0.2389,0.2398,0.2488,0.2574,0.2607,0.2635,0.2687,0.2552,0.2541,0.2461,0.2441,0.231,0.2707,0.2707,0.2707,0.2707,0,0.1936,0.1949,0.2016,0.2039,0.2044,0.2115,0.21,0.2137,0.2168,0.2164,0.2229,0.2225,0.238,0.2436,0.2535,0.2522,0.2614,0.2509,0.2509,0.2431,0.2408,0.238,0.2376,0.2706,0.2707,0.2707,0.2707,0,0.184,0.1875,0.1925,0.2011,0.2012,0.2013,0.2049,0.2033,0.2051,0.2043,0.2048,0.2111,0.2167,0.2303,0.241,0.2412,0.2353,0.2425,0.2302,0.2283,0.2051,0.2047,0.1791,0.177,0.2245,0.224,0.2236,0,0.1768,0.1781,0.1892,0.19,0.1933,0.1935,0.1925,0.1971,0.1968,0.1973,0.1963,0.1992,0.2012,0.2062,0.2116,0.2193,0.2197,0.2035,0.2041,0.1965,0.1968,0.1895,0.1897,0.1936,0.1929,0.1924,0.192,0,0.1702,0.1752,0.182,0.1845,0.1845,0.1831,0.1829,0.1817,0.1855,0.1833,0.1805,0.1807,0.1831,0.1807,0.1833,0.1881,0.1876,0.1921,0.1906,0.172,0.1577,0.1583,0.202,0.1875,0.1879,0.1883,0.1885,0.1887,0.1677,0.1716,0.1808,0.1795,0.1785,0.1719,0.1678,0.1679,0.1647,0.158,0.1648,0.1559,0.1538,0.1553,0.1572,0.1455,0.1555,0.1421,0.1431,0.1371,0.1287,0.1567,0.1371,0.1373,0.1374,0.1376,0.1377,0,0.1639,0.1667,0.1717,0.1727,0.1651,0.1653,0.16,0.1533,0.1451,0.139,0.1346,0.1243,0.1173,0.117,0.1084,0.1006,0.1015,0.0989,0.0946,0.099,0.1304,0.1228,0.0914,0.0914,0.0914,0.0914,0.0915,0.0915,0.1629,0.1634,0.1655,0.1561,0.1524,0.1393,0.1327,0.1253,0.1193,0.1025,0.0916,0.0918,0.0935,0.0826,0.0719,0.0705,0.0694,0.0568,0.0661,0.0973,0.1018,0.1061,0.099,0.0631,0.063,0.0324,0.0322,0.032]},{"header":{"parameterUnit":"m.s-1","parameterCategory":2,"la1":30.2991,"la2":30.254,"lo1":-89.0895,"lo2":-89.0444,"dy":0.0017,"dx":0.0017,"nx":28,"ny":28,"refTime":"2023-08-08T21:00:00:Z","depth":"0","parameterNumber":3,"parameterNumberName":"V-component_of_CURRENTS"},"data":[0,0,0,0,0,0,0,0,0,0,0,0,0,0,0,0,0,0,0,0,0,0,0,0,0,0,0,0,0,0,0,0,0,0,0,0,0,0,0,0,0,0,0,0,0,0,0,0,0,0,0,0,0,0,0,0,0,0,0.1266,0.1267,0,0.1302,0.1302,0.1303,0.1337,0.1337,0.1338,0.1338,0.1362,0.1362,0.1362,0,0,0,0,0,0,0,0,0,0,0,0,0,0.1108,0.1112,0.1266,0.1267,0.1267,0.1302,0.1302,0.1303,0.1337,0.1337,0.1338,0.1338,0.1362,0.1362,0.1362,0,0,0,0,0,0,0,0,0,0,0,0,0,0.1164,0.1113,0.1266,0.1288,0.1291,0.1302,0.1302,0.1303,0.1337,0.1337,0.1338,0.1339,0.1362,0.1362,0.1362,0.1351,0,0,0.1363,0.1364,0,0,0,0,0,0,0,0,0.1161,0.117,0.1285,0.1287,0.129,0.1316,0.1255,0.1318,0.1337,0.1319,0.1338,0.1339,0.1345,0.1347,0.1352,0.1352,0.1353,0.1363,0.1364,0.1364,0.1364,0,0,0,0,0,0,0,0.1157,0.1168,0.128,0.1285,0.1288,0.1255,0.1265,0.1267,0.1328,0.1321,0.1323,0.1327,0.1346,0.1352,0.1353,0.1354,0.1363,0.1364,0.1364,0.1364,0.1381,0.1382,0,0,0,0,0,0,0.1159,0.1165,0.1279,0.1281,0.1226,0.1258,0.1269,0.1307,0.1328,0.1332,0.1327,0.1329,0.1351,0.1352,0.1354,0.1357,0.1364,0.1364,0.1364,0.1381,0.1381,0.1382,0,0,0,0,0,0,0.1156,0.117,0.1278,0.1221,0.1233,0.1261,0.1302,0.1307,0.1321,0.1332,0.1336,0.1336,0.1351,0.1353,0.136,0.1358,0.1364,0.1365,0.1381,0.1381,0.1382,0.1353,0,0,0,0,0,0,0.1152,0.117,0.1177,0.1223,0.1236,0.1281,0.1302,0.1307,0.1321,0.1325,0.1342,0.1345,0.1352,0.136,0.1361,0.1358,0.1365,0.138,0.1381,0.1381,0.1354,0.1353,0.1352,0,0,0,0,0,0.1147,0.1162,0.1178,0.119,0.1254,0.1281,0.1284,0.1305,0.1321,0.1321,0.1338,0.1344,0.1364,0.136,0.1361,0.1358,0.138,0.1381,0.1381,0.1354,0.1353,0.1352,0,0,0,0,0,0,0.1082,0.1169,0.1187,0.1224,0.1247,0.1287,0.1279,0.1306,0.132,0.1324,0.1342,0.1345,0.1353,0.1361,0.1356,0.1367,0.1375,0.1376,0.1354,0.1353,0.1352,0.1393,0.1365,0,0,0,0,0,0.1075,0.1115,0.1176,0.1193,0.1209,0.1245,0.1253,0.128,0.1305,0.1313,0.1331,0.1347,0.1354,0.1358,0.1368,0.1367,0.1403,0.1369,0.1368,0.1367,0.1402,0.144,0.1446,0.1384,0.1384,0.1384,0,0,0.1032,0.1098,0.1105,0.1181,0.1199,0.1224,0.1252,0.1273,0.1308,0.1311,0.1346,0.1342,0.1355,0.1359,0.1363,0.1365,0.1401,0.1368,0.1367,0.1404,0.1441,0.1448,0.1453,0.1384,0.1384,0.1384,0,0,0.0984,0.1049,0.1062,0.1104,0.1157,0.1194,0.1205,0.1258,0.1294,0.1328,0.1334,0.133,0.1358,0.1354,0.1359,0.1358,0.1395,0.1361,0.1385,0.1419,0.1425,0.1431,0.147,0.148,0.1358,0.1358,0.1358,0,0.0925,0.0998,0.1055,0.1096,0.1129,0.1186,0.1207,0.1253,0.1303,0.1339,0.1342,0.1376,0.1361,0.1371,0.1368,0.1355,0.1396,0.1382,0.1418,0.1425,0.1431,0.1471,0.1482,0.1357,0.1357,0.1357,0.1357,0,0.0908,0.0965,0.0978,0.1066,0.1089,0.1131,0.1206,0.1239,0.1293,0.1354,0.1396,0.1382,0.1405,0.1384,0.1378,0.1405,0.1426,0.1411,0.1421,0.1436,0.1476,0.1488,0.1355,0.1355,0.1356,0.1356,0,0,0.0835,0.0941,0.0959,0.1014,0.1103,0.1141,0.1181,0.1265,0.1307,0.1373,0.1427,0.143,0.1445,0.1452,0.1425,0.1447,0.149,0.1455,0.1458,0.1496,0.1593,0.1482,0.1484,0.1491,0.1493,0.1495,0.1598,0,0.0823,0.0893,0.0949,0.1022,0.1077,0.1143,0.1181,0.1257,0.1315,0.138,0.143,0.1453,0.147,0.144,0.1486,0.1487,0.1526,0.1466,0.1576,0.1579,0.1478,0.1495,0.1484,0.1565,0.161,0.1612,0.1613,0,0.0846,0.0902,0.0941,0.1065,0.1088,0.1122,0.1206,0.1247,0.1339,0.1375,0.1434,0.147,0.152,0.1503,0.1608,0.158,0.1605,0.1613,0.1617,0.1542,0.1491,0.1561,0.1585,0.1597,0.1632,0.163,0.1629,0,0.0842,0.0946,0.0982,0.1023,0.1112,0.1141,0.1193,0.1254,0.1299,0.1357,0.1367,0.1478,0.1494,0.1585,0.1631,0.1626,0.1742,0.1722,0.166,0.1653,0.1682,0.1671,0.1734,0.1803,0.1803,0.1803,0.1802,0,0.0872,0.0916,0.0995,0.1028,0.1077,0.1148,0.1188,0.1223,0.1287,0.133,0.137,0.139,0.1517,0.1596,0.166,0.1709,0.1777,0.1688,0.1675,0.1666,0.1653,0.1693,0.1739,0.1806,0.1806,0.1805,0.1804,0,0.0837,0.0878,0.0952,0.1052,0.1071,0.1108,0.1186,0.1208,0.125,0.1284,0.1294,0.1372,0.1444,0.1556,0.1668,0.1699,0.1784,0.1746,0.1723,0.1703,0.1612,0.1657,0.1767,0.1869,0.1707,0.1705,0.1703,0,0.0806,0.083,0.0952,0.0965,0.0999,0.106,0.1069,0.1158,0.1188,0.1261,0.1277,0.1343,0.1391,0.1518,0.1589,0.1688,0.1743,0.1668,0.1627,0.1618,0.1662,0.1696,0.1781,0.1672,0.167,0.1669,0.1668,0,0.0744,0.0791,0.0856,0.0902,0.0926,0.0955,0.1017,0.1037,0.1124,0.1151,0.1204,0.1248,0.1367,0.1447,0.1524,0.1579,0.1707,0.163,0.1658,0.1672,0.1689,0.1775,0.1596,0.1654,0.1655,0.1656,0.1657,0.1658,0.0705,0.073,0.0821,0.0849,0.0849,0.0842,0.0858,0.0914,0.0946,0.0986,0.1121,0.1161,0.1305,0.1413,0.1459,0.15,0.1616,0.1518,0.159,0.1634,0.1684,0.1446,0.144,0.144,0.144,0.144,0.1441,0,0.0678,0.0702,0.0746,0.0778,0.0744,0.0777,0.0798,0.0797,0.0787,0.0853,0.0929,0.1107,0.1189,0.1297,0.1403,0.1466,0.157,0.1514,0.1616,0.1722,0.1539,0.1482,0.1438,0.1438,0.1438,0.1438,0.1438,0.1438,0.0669,0.0679,0.0707,0.0659,0.0656,0.0602,0.0594,0.0584,0.0628,0.0687,0.0793,0.0963,0.1212,0.1284,0.1413,0.1471,0.1668,0.164,0.1773,0.165,0.1657,0.1664,0.1617,0.1602,0.1603,0.1966,0.1969,0.1971]}],[{"header":{"parameterUnit":"m.s-1","parameterCategory":2,"la1":30.2991,"la2":30.254,"lo1":-89.0895,"lo2":-89.0444,"dy":0.0017,"dx":0.0017,"nx":28,"ny":28,"refTime":"2023-08-08T21:00:00:Z","depth":"2","parameterNumber":2,"parameterNumberName":"U-component_of_CURRENTS"},"data":[0,0,0,0,0,0,0,0,0,0,0,0,0,0,0,0,0,0,0,0,0,0,0,0,0,0,0,0,0,0,0,0,0,0,0,0,0,0,0,0,0,0,0,0,0,0,0,0,0,0,0,0,0,0,0,0,0,0,0.1642,0.1644,0,0.1734,0.1735,0.1735,0.1771,0.1771,0.1772,0.1772,0.1841,0.1842,0.1843,0,0,0,0,0,0,0,0,0,0,0,0,0,0.1682,0.1679,0.1642,0.1644,0.1646,0.1734,0.1735,0.1735,0.1771,0.1771,0.1772,0.1773,0.184,0.1842,0.1843,0,0,0,0,0,0,0,0,0,0,0,0,0,0.17,0.1679,0.1642,0.168,0.1685,0.1734,0.1735,0.1735,0.1771,0.1771,0.1772,0.1773,0.184,0.1842,0.1844,0.1841,0,0,0.185,0.1851,0,0,0,0,0,0,0,0,0.1699,0.1697,0.1673,0.1678,0.1684,0.1749,0.1775,0.1772,0.177,0.173,0.1772,0.1773,0.1813,0.1817,0.1821,0.1844,0.1847,0.185,0.1851,0.1852,0.1853,0,0,0,0,0,0,0,0.1697,0.1695,0.167,0.1675,0.1682,0.1758,0.1758,0.1775,0.1759,0.1733,0.1738,0.1761,0.1814,0.1819,0.1823,0.1848,0.185,0.1852,0.1853,0.1854,0.1873,0.1873,0,0,0,0,0,0,0.1691,0.1692,0.1667,0.1674,0.1703,0.1756,0.1757,0.1721,0.1759,0.1769,0.1761,0.1763,0.1815,0.1821,0.1826,0.1878,0.1852,0.1854,0.1855,0.1874,0.1873,0.1872,0,0,0,0,0,0,0.1691,0.1686,0.1664,0.1696,0.17,0.1754,0.1714,0.1722,0.1719,0.1782,0.1789,0.1749,0.1816,0.1823,0.187,0.1879,0.1855,0.1857,0.1875,0.1874,0.1873,0.1949,0,0,0,0,0,0,0.169,0.1683,0.1692,0.1693,0.1698,0.1662,0.1715,0.1724,0.1737,0.174,0.1775,0.1783,0.1817,0.1867,0.1872,0.1881,0.1858,0.1876,0.1874,0.1873,0.1947,0.1951,0.1953,0,0,0,0,0,0.169,0.1653,0.1689,0.1691,0.1692,0.1661,0.1667,0.1708,0.1735,0.1711,0.1782,0.1781,0.186,0.187,0.1875,0.1885,0.1876,0.1875,0.1873,0.1946,0.195,0.1953,0,0,0,0,0,0,0.1664,0.1656,0.1694,0.1657,0.1662,0.1669,0.1683,0.1694,0.1727,0.177,0.1798,0.181,0.1854,0.1843,0.1852,0.1878,0.1856,0.1856,0.1909,0.1913,0.1916,0.1854,0.186,0,0,0,0,0,0.1669,0.162,0.165,0.1607,0.1632,0.1659,0.167,0.1698,0.1722,0.1736,0.1776,0.1817,0.1848,0.1862,0.1892,0.191,0.1796,0.1906,0.1909,0.1913,0.1861,0.1763,0.1752,0.1867,0.1867,0.1867,0,0,0.1657,0.1633,0.1621,0.16,0.1625,0.1655,0.1662,0.1676,0.1676,0.1743,0.1779,0.1842,0.1856,0.1903,0.1914,0.1898,0.1803,0.1911,0.1914,0.1859,0.176,0.1749,0.1738,0.1866,0.1866,0.1867,0,0,0.1605,0.1584,0.1578,0.1572,0.1616,0.1642,0.1639,0.1682,0.1679,0.1703,0.1788,0.1855,0.1857,0.192,0.193,0.1949,0.1834,0.1946,0.1911,0.182,0.1809,0.1798,0.1569,0.1538,0.1938,0.1938,0.1938,0,0.1664,0.1571,0.1568,0.1569,0.1592,0.163,0.1668,0.165,0.1699,0.1682,0.1706,0.178,0.185,0.1891,0.1935,0.1958,0.1827,0.1915,0.1824,0.1811,0.1799,0.1567,0.1532,0.1942,0.1941,0.1941,0.1941,0,0.1577,0.1564,0.1541,0.1565,0.1601,0.1591,0.1634,0.1628,0.1642,0.1636,0.1651,0.1758,0.1791,0.1839,0.1902,0.1883,0.1785,0.1854,0.1819,0.1792,0.1548,0.151,0.1947,0.1945,0.1944,0.1943,0,0,0.1607,0.1525,0.1528,0.1501,0.1594,0.1562,0.1604,0.1593,0.1554,0.158,0.1506,0.1648,0.1709,0.1726,0.1842,0.179,0.1642,0.1789,0.1783,0.1562,0.1302,0.1214,0.1161,0.1698,0.1694,0.169,0.1141,0,0.1586,0.1507,0.1531,0.1498,0.1483,0.1538,0.1524,0.1527,0.1545,0.1473,0.15,0.1521,0.1655,0.1726,0.1694,0.1658,0.1552,0.1774,0.1355,0.1338,0.127,0.1122,0.1301,0.0828,0.1102,0.1096,0.1091,0,0.1517,0.1459,0.1459,0.1363,0.1376,0.1401,0.1389,0.1391,0.1348,0.1349,0.1391,0.1419,0.1399,0.152,0.1325,0.1449,0.1373,0.1309,0.1288,0.1147,0.1182,0.0911,0.0746,0.1025,0.1031,0.1036,0.104,0,0.1411,0.1372,0.1338,0.1325,0.1313,0.1314,0.1312,0.1356,0.1307,0.1323,0.1298,0.1259,0.1261,0.1117,0.106,0.1164,0.0744,0.0872,0.0675,0.0662,0.0696,0.0695,0.069,0.069,0.0692,0.0693,0.0695,0,0.1299,0.1269,0.1256,0.1208,0.1171,0.1207,0.1184,0.1208,0.1175,0.1079,0.1255,0.1128,0.1179,0.0989,0.0884,0.0594,0.0592,0.0569,0.0514,0.0718,0.0726,0.0844,0.087,0.0673,0.0677,0.0681,0.0685,0,0.1249,0.1221,0.1191,0.1149,0.1138,0.1142,0.1097,0.1045,0.1079,0.0975,0.0967,0.095,0.075,0.0716,0.0469,0.0395,0.0122,0.0055,0.0224,0.0201,0.0107,0.0143,-0.0335,-0.0343,-0.035,-0.0355,-0.036,0,0.1204,0.1172,0.1177,0.1153,0.1171,0.1128,0.1101,0.1064,0.1005,0.0777,0.0673,0.0536,0.0377,-0.0025,-0.0059,-0.0315,-0.0152,-0.0317,-0.0029,0.0006,0.0,0.0047,0.009,-0.0011,-0.0012,-0.0013,-0.0014,0,0.1176,0.1233,0.1185,0.1145,0.1138,0.1097,0.0998,0.0898,0.0786,0.0645,0.0311,0.0116,-0.01,-0.023,-0.0368,-0.0492,-0.026,-0.0357,-0.0399,0.0264,0.0281,0.0288,0.0325,-0.0024,-0.0023,-0.0022,-0.0022,-0.0021,0.1194,0.1193,0.1131,0.1084,0.1111,0.1067,0.0935,0.0801,0.0614,0.0348,0.0013,-0.0204,-0.0276,-0.0413,-0.0509,-0.0428,-0.0495,-0.0404,-0.0387,-0.0372,-0.0193,-0.0182,-0.0553,-0.0555,-0.0557,-0.0559,-0.056,0,0.1118,0.1081,0.1022,0.1015,0.102,0.1042,0.0857,0.0677,0.0452,0.0274,-0.0059,-0.0291,-0.0378,-0.0361,-0.0259,-0.0373,-0.0205,-0.0322,-0.002,-0.0016,-0.0011,0.0204,-0.0062,-0.006,-0.0059,-0.0057,0,0,0.1102,0.0946,0.089,0.0882,0.092,0.0846,0.0713,0.0514,0.0332,0.0061,-0.0039,-0.0303,-0.0356,-0.0199,-0.021,-0.0079,-0.0013,-0.0044,-0.0441,-0.0077,-0.0068,-0.007,0.026,0,0,0,0,0]},{"header":{"parameterUnit":"m.s-1","parameterCategory":2,"la1":30.2991,"la2":30.254,"lo1":-89.0895,"lo2":-89.0444,"dy":0.0017,"dx":0.0017,"nx":28,"ny":28,"refTime":"2023-08-08T21:00:00:Z","depth":"2","parameterNumber":3,"parameterNumberName":"V-component_of_CURRENTS"},"data":[0,0,0,0,0,0,0,0,0,0,0,0,0,0,0,0,0,0,0,0,0,0,0,0,0,0,0,0,0,0,0,0,0,0,0,0,0,0,0,0,0,0,0,0,0,0,0,0,0,0,0,0,0,0,0,0,0,0,0.0212,0.0212,0,0.0135,0.0133,0.0131,0.0042,0.0042,0.0041,0.0041,0.0082,0.0083,0.0084,0,0,0,0,0,0,0,0,0,0,0,0,0,0.0202,0.0202,0.0212,0.0212,0.0212,0.0136,0.0133,0.0131,0.0042,0.0042,0.0041,0.0041,0.0082,0.0083,0.0085,0,0,0,0,0,0,0,0,0,0,0,0,0,0.0162,0.0202,0.0211,0.0168,0.0164,0.0136,0.0133,0.013,0.0042,0.0042,0.0041,0.0041,0.0081,0.0083,0.0085,0.0101,0,0,0.009,0.0091,0,0,0,0,0,0,0,0,0.0164,0.016,0.0174,0.0171,0.0167,0.0109,0.0145,0.0131,0.0042,0.0074,0.0041,0.0041,0.0111,0.011,0.0076,0.0103,0.0104,0.0091,0.0092,0.0092,0.0093,0,0,0,0,0,0,0,0.0167,0.0163,0.0168,0.0175,0.0171,0.0127,0.012,0.014,0.0087,0.0071,0.0068,0.0081,0.0108,0.0074,0.0077,0.0105,0.009,0.0092,0.0093,0.0094,0.0121,0.0121,0,0,0,0,0,0,0.0208,0.0166,0.0171,0.0167,0.018,0.0129,0.012,0.0117,0.0084,0.0081,0.0081,0.0077,0.0071,0.0075,0.0078,0.0131,0.0092,0.0094,0.0095,0.0122,0.0121,0.0121,0,0,0,0,0,0,0.0207,0.0208,0.0174,0.0176,0.017,0.0131,0.0127,0.0116,0.0089,0.0092,0.0089,0.0068,0.0071,0.0076,0.0102,0.0132,0.0095,0.0097,0.0122,0.0122,0.0121,0.0217,0,0,0,0,0,0,0.0207,0.0208,0.0218,0.0179,0.0172,0.0132,0.0128,0.0115,0.0103,0.0097,0.0081,0.0083,0.0071,0.0099,0.0104,0.0134,0.0098,0.0123,0.0122,0.0121,0.0214,0.022,0.0224,0,0,0,0,0,0.0206,0.0224,0.0218,0.022,0.0188,0.0132,0.0121,0.0085,0.0104,0.0064,0.0085,0.0084,0.0097,0.0101,0.0107,0.0138,0.0123,0.0122,0.0121,0.0212,0.0218,0.0224,0,0,0,0,0,0,0.0217,0.0217,0.0209,0.0223,0.0173,0.0122,0.0112,0.0096,0.0076,0.0102,0.0096,0.0098,0.0118,0.0111,0.0117,0.0134,0.0103,0.0104,0.017,0.0176,0.0181,0.0191,0.01,0,0,0,0,0,0.0232,0.0252,0.0212,0.0223,0.0203,0.0162,0.0146,0.0124,0.011,0.0098,0.009,0.01,0.0115,0.0136,0.0121,0.016,0.0113,0.0172,0.0177,0.0182,0.0188,0.012,0.0121,0.0118,0.0118,0.0118,0,0,0.0252,0.0251,0.0267,0.0229,0.0197,0.0163,0.0146,0.0128,0.0094,0.0117,0.0086,0.0113,0.0122,0.0141,0.0152,0.0151,0.0159,0.0181,0.0186,0.0189,0.012,0.012,0.012,0.0117,0.0118,0.0118,0,0,0.0292,0.0283,0.0304,0.0246,0.0216,0.0189,0.0189,0.0136,0.0095,0.0074,0.0103,0.0166,0.013,0.0182,0.02,0.0231,0.0172,0.0209,0.0274,0.0209,0.0209,0.0208,0.0159,0.0153,0.0232,0.0232,0.0232,0,0.0326,0.0308,0.0293,0.0261,0.0239,0.0204,0.0189,0.0128,0.0091,0.0054,0.0061,0.0102,0.015,0.0229,0.026,0.0251,0.0186,0.0263,0.0218,0.0216,0.0214,0.0163,0.0155,0.0237,0.0236,0.0236,0.0235,0,0.0327,0.031,0.0305,0.0267,0.025,0.0211,0.0157,0.0111,0.0089,0.0022,0.0039,0.013,0.0157,0.0205,0.0261,0.0305,0.0253,0.0219,0.0211,0.022,0.0165,0.0156,0.0243,0.0241,0.024,0.0239,0,0,0.0398,0.033,0.032,0.0256,0.0239,0.0184,0.0175,0.0092,0.007,0.0019,-0.0019,0.0112,0.0158,0.019,0.0303,0.0327,0.0319,0.0292,0.0287,0.026,0.0158,0.0331,0.0337,0.0253,0.0251,0.025,0.0131,0,0.0389,0.0306,0.033,0.0245,0.0171,0.016,0.0128,0.0061,0.0056,-0.0017,0.0022,0.0061,0.0143,0.0263,0.0265,0.0296,0.0294,0.0354,0.0138,0.0133,0.0299,0.0333,0.0227,0.0129,0.0121,0.0119,0.0118,0,0.0357,0.0287,0.0245,0.0136,0.0117,0.0113,0.0082,0.0056,-0.0015,-0.0009,0.004,0.0047,0.0134,0.0195,0.0188,0.0204,0.0191,0.0205,0.0197,0.0321,0.029,0.0113,0.0112,0.0101,0.0103,0.0104,0.0105,0,0.0269,0.0203,0.0165,0.0119,0.0047,0.0053,0.0035,0.0043,-0.0001,0.0059,0.0085,0.0084,0.0167,0.0087,0.0169,0.0138,0.0115,0.0041,0.0172,0.0181,0.0038,0.0041,-0.0003,-0.0003,-0.0002,-0.0002,-0.0002,0,0.0173,0.0134,0.0109,0.0015,-0.0002,-0.0017,-0.0013,0.0026,0.0016,-0.0026,0.0111,0.0143,0.0148,0.0134,0.0102,0.0148,0.0037,0.0201,0.0174,0.0074,0.0082,0.0008,0.0011,-0.0007,-0.0006,-0.0005,-0.0004,0,0.0126,0.0105,0.0045,-0.004,-0.0045,-0.0037,-0.0072,-0.0089,0.0002,-0.0,0.0024,0.0109,0.0191,0.0228,0.0183,0.0163,0.0145,0.0194,0.0124,0.0099,0.0235,0.0244,0.0222,0.0227,0.0232,0.0236,0.0239,0,0.0109,0.0053,0.0,-0.0004,0.0001,-0.0033,-0.0049,-0.0055,-0.0068,-0.0036,-0.0068,0.0073,0.0165,0.0243,0.0253,0.0262,0.0289,0.0236,0.0207,0.0289,0.0263,0.0264,0.0267,0.0008,0.0009,0.001,0.0011,0,0.0059,0.0089,-0.0034,-0.0054,-0.0034,-0.0037,-0.0098,-0.0165,-0.017,-0.0142,-0.0142,-0.0066,0.0125,0.0144,0.0346,0.0319,0.0224,0.0264,0.0291,0.0049,0.01,0.0072,0.0077,0.0019,0.0018,0.0017,0.0017,0.0016,0.003,-0.0016,-0.016,-0.0171,-0.0074,-0.0037,-0.0167,-0.0217,-0.0279,-0.026,-0.0236,-0.0062,-0.0067,0.0201,0.0273,0.0396,0.0332,0.0282,0.027,0.0259,0.0338,0.0403,0.039,0.0391,0.0392,0.0393,0.0394,0,-0.0076,-0.0175,-0.0274,-0.0269,-0.0144,-0.0065,-0.0202,-0.0332,-0.0407,-0.0246,-0.0189,-0.0153,-0.0008,0.0124,0.0246,0.0319,0.0265,0.0409,0.0217,0.0206,0.0197,0.0267,0.0303,0.0304,0.0306,0.0307,0,0,-0.0141,-0.0345,-0.0463,-0.0372,-0.0252,-0.0231,-0.0323,-0.042,-0.0443,-0.0346,-0.0217,-0.0073,-0.0038,0.0016,0.0076,0.0209,0.0239,0.0282,0.0316,0.0063,0.0057,0.0055,0.0145,0,0,0,0,0]}],[{"header":{"parameterUnit":"m.s-1","parameterCategory":2,"la1":30.2991,"la2":30.254,"lo1":-89.0895,"lo2":-89.0444,"dy":0.0017,"dx":0.0017,"nx":28,"ny":28,"refTime":"2023-08-08T21:00:00:Z","depth":"4","parameterNumber":2,"parameterNumberName":"U-component_of_CURRENTS"},"data":[0,0,0,0,0,0,0,0,0,0,0,0,0,0,0,0,0,0,0,0,0,0,0,0,0,0,0,0,0,0,0,0,0,0,0,0,0,0,0,0,0,0,0,0,0,0,0,0,0,0,0,0,0,0,0,0,0,0,-0.0844,-0.0844,0,-0.0839,-0.0839,-0.084,-0.0867,-0.0868,-0.0868,-0.0869,-0.113,-0.1136,-0.1142,0,0,0,0,0,0,0,0,0,0,0,0,0,-0.0782,-0.0784,-0.0844,-0.0844,-0.0844,-0.0839,-0.0839,-0.084,-0.0867,-0.0868,-0.0868,-0.0869,-0.1128,-0.1135,-0.1143,0,0,0,0,0,0,0,0,0,0,0,0,0,-0.0799,-0.0785,-0.0844,-0.0855,-0.0856,-0.0839,-0.0839,-0.084,-0.0867,-0.0868,-0.0869,-0.0869,-0.1125,-0.1134,-0.1144,-0.1186,0,0,-0.1173,-0.1177,0,0,0,0,0,0,0,0,-0.0798,-0.0802,-0.0854,-0.0855,-0.0855,-0.0853,-0.0913,-0.0968,-0.0867,-0.0865,-0.0869,-0.087,-0.106,-0.1075,-0.1071,-0.1198,-0.1209,-0.1174,-0.118,-0.1184,-0.1187,0,0,0,0,0,0,0,-0.0797,-0.0801,-0.0845,-0.0854,-0.0854,-0.0827,-0.0832,-0.0922,-0.0964,-0.0865,-0.0867,-0.0862,-0.1062,-0.1061,-0.1078,-0.1213,-0.1174,-0.1182,-0.1188,-0.1192,-0.1494,-0.1496,0,0,0,0,0,0,-0.0798,-0.0801,-0.0845,-0.0844,-0.0826,-0.0828,-0.0833,-0.0855,-0.0958,-0.0971,-0.0861,-0.0863,-0.1045,-0.1067,-0.1088,-0.1247,-0.1184,-0.1193,-0.1198,-0.1492,-0.1495,-0.1497,0,0,0,0,0,0,-0.0797,-0.0803,-0.0845,-0.0819,-0.0822,-0.0829,-0.0852,-0.0854,-0.089,-0.0951,-0.0971,-0.0899,-0.1046,-0.1075,-0.1149,-0.1254,-0.1197,-0.1206,-0.1489,-0.1493,-0.1496,-0.1501,0,0,0,0,0,0,-0.0795,-0.0803,-0.0834,-0.082,-0.0824,-0.0847,-0.0851,-0.0853,-0.0882,-0.0886,-0.099,-0.1012,-0.1049,-0.1133,-0.1158,-0.1266,-0.1213,-0.1486,-0.1491,-0.1495,-0.1498,-0.1504,-0.151,0,0,0,0,0,-0.0794,-0.0835,-0.0836,-0.0842,-0.0862,-0.0847,-0.0847,-0.0854,-0.0883,-0.0893,-0.0938,-0.1011,-0.1181,-0.114,-0.117,-0.1284,-0.1484,-0.1489,-0.1494,-0.1495,-0.1503,-0.1509,0,0,0,0,0,0,-0.0828,-0.084,-0.0842,-0.0887,-0.087,-0.0851,-0.0882,-0.0878,-0.0919,-0.0951,-0.1007,-0.103,-0.1137,-0.1201,-0.1155,-0.1382,-0.1361,-0.1372,-0.1352,-0.136,-0.1366,-0.1343,-0.1221,0,0,0,0,0,-0.0846,-0.0863,-0.0867,-0.0884,-0.0912,-0.0905,-0.0911,-0.0906,-0.0928,-0.0948,-0.101,-0.11,-0.1176,-0.1253,-0.1313,-0.1439,-0.1464,-0.1542,-0.1547,-0.1552,-0.1553,-0.168,-0.1697,-0.1514,-0.1514,-0.1514,0,0,-0.086,-0.086,-0.0875,-0.0889,-0.0903,-0.0933,-0.0914,-0.0936,-0.0955,-0.0978,-0.1063,-0.1109,-0.12,-0.1307,-0.1373,-0.1386,-0.1602,-0.1558,-0.1561,-0.156,-0.1687,-0.1705,-0.1721,-0.1517,-0.1517,-0.1516,0,0,-0.0873,-0.0916,-0.0947,-0.0949,-0.0961,-0.0965,-0.0982,-0.0998,-0.1022,-0.1076,-0.11,-0.1166,-0.1323,-0.1367,-0.1425,-0.1506,-0.1599,-0.1596,-0.1651,-0.1775,-0.179,-0.1805,-0.1784,-0.1797,-0.1636,-0.1636,-0.1636,0,-0.0894,-0.0921,-0.0944,-0.0971,-0.099,-0.0995,-0.1037,-0.1055,-0.1072,-0.1106,-0.1119,-0.129,-0.1342,-0.1469,-0.1487,-0.1522,-0.158,-0.1613,-0.1781,-0.1797,-0.1811,-0.1788,-0.1802,-0.1637,-0.1636,-0.1636,-0.1636,0,-0.0923,-0.0954,-0.0981,-0.1023,-0.1054,-0.1075,-0.1117,-0.1149,-0.1198,-0.1213,-0.133,-0.1369,-0.1479,-0.1528,-0.1536,-0.1694,-0.1688,-0.1741,-0.1756,-0.183,-0.1799,-0.1814,-0.1638,-0.1637,-0.1637,-0.1637,0,0,-0.093,-0.0993,-0.0997,-0.1027,-0.1085,-0.1106,-0.118,-0.1235,-0.1303,-0.135,-0.1451,-0.1533,-0.1568,-0.1629,-0.1674,-0.1776,-0.187,-0.1827,-0.1834,-0.1789,-0.2084,-0.181,-0.1799,-0.2006,-0.2011,-0.2014,-0.1992,0,-0.094,-0.0989,-0.1029,-0.1087,-0.1139,-0.1185,-0.1247,-0.13,-0.1379,-0.1473,-0.1536,-0.1654,-0.1617,-0.1706,-0.1788,-0.1878,-0.1926,-0.1865,-0.2034,-0.2035,-0.1773,-0.1814,-0.2029,-0.2002,-0.2006,-0.2008,-0.201,0,-0.0955,-0.0977,-0.1056,-0.1126,-0.1167,-0.1214,-0.1342,-0.1397,-0.152,-0.1598,-0.1713,-0.1777,-0.1891,-0.1879,-0.2023,-0.2018,-0.2035,-0.2073,-0.2076,-0.1834,-0.1791,-0.1937,-0.2037,-0.2034,-0.2032,-0.2031,-0.2029,0,-0.0918,-0.0995,-0.1058,-0.1081,-0.118,-0.1241,-0.1309,-0.1438,-0.1504,-0.1707,-0.1805,-0.1938,-0.2039,-0.2129,-0.2129,-0.2151,-0.2264,-0.2304,-0.2033,-0.2009,-0.226,-0.2246,-0.2385,-0.2385,-0.2385,-0.2385,-0.2385,0,-0.0888,-0.0931,-0.1052,-0.1065,-0.1167,-0.1255,-0.1387,-0.1474,-0.1615,-0.1682,-0.1879,-0.19,-0.2137,-0.2191,-0.219,-0.2107,-0.2304,-0.2014,-0.2008,-0.2249,-0.2235,-0.2264,-0.2251,-0.2384,-0.2385,-0.2385,-0.2385,0,-0.0822,-0.0903,-0.0958,-0.1074,-0.115,-0.1218,-0.1396,-0.1446,-0.1641,-0.1745,-0.1817,-0.1946,-0.1964,-0.2081,-0.2192,-0.2148,-0.2127,-0.2034,-0.2182,-0.2188,-0.1766,-0.1753,-0.1766,-0.1756,-0.1748,-0.1742,-0.1736,0,-0.079,-0.0825,-0.0951,-0.0993,-0.1053,-0.1196,-0.1264,-0.1447,-0.1484,-0.1654,-0.1638,-0.1739,-0.1784,-0.1707,-0.1829,-0.1831,-0.1801,-0.1851,-0.1879,-0.172,-0.1715,-0.1715,-0.1713,-0.1724,-0.1721,-0.1719,-0.1717,0,-0.0731,-0.0786,-0.0833,-0.0902,-0.0987,-0.1066,-0.1168,-0.1194,-0.1353,-0.1539,-0.1436,-0.1452,-0.1433,-0.1453,-0.1504,-0.1481,-0.1892,-0.1769,-0.1786,-0.1812,-0.167,-0.1672,-0.168,-0.169,-0.1694,-0.1696,-0.1698,0,-0.0705,-0.0706,-0.0771,-0.0835,-0.0895,-0.0885,-0.0978,-0.0985,-0.1067,-0.1245,-0.1126,-0.1199,-0.1296,-0.1249,-0.1228,-0.1262,-0.1252,-0.1332,-0.1373,-0.1405,-0.1306,-0.1073,-0.0891,0,0,0,0,0,-0.0661,-0.0671,-0.0697,-0.0734,-0.074,-0.0784,-0.0874,-0.095,-0.1108,-0.0976,-0.107,-0.0989,-0.097,-0.0956,-0.0914,-0.1069,-0.1285,-0.1026,-0.1404,-0.1538,-0.1569,-0.1491,0,0,0,0,0,0,-0.0654,-0.0679,-0.068,-0.0637,-0.0605,-0.0622,-0.066,-0.0754,-0.0696,-0.0836,-0.0778,-0.0932,-0.0874,-0.0944,-0.0878,-0.09,-0.1128,-0.1074,-0.1072,-0.152,-0.1548,-0.1574,-0.1504,0,0,0,0,0]},{"header":{"parameterUnit":"m.s-1","parameterCategory":2,"la1":30.2991,"la2":30.254,"lo1":-89.0895,"lo2":-89.0444,"dy":0.0017,"dx":0.0017,"nx":28,"ny":28,"refTime":"2023-08-08T21:00:00:Z","depth":"4","parameterNumber":3,"parameterNumberName":"V-component_of_CURRENTS"},"data":[0,0,0,0,0,0,0,0,0,0,0,0,0,0,0,0,0,0,0,0,0,0,0,0,0,0,0,0,0,0,0,0,0,0,0,0,0,0,0,0,0,0,0,0,0,0,0,0,0,0,0,0,0,0,0,0,0,0,-0.0018,-0.0016,0,0.0048,0.0048,0.0047,0.0084,0.0085,0.0087,0.0088,0.0148,0.0149,0.0149,0,0,0,0,0,0,0,0,0,0,0,0,0,-0.0079,-0.0079,-0.0018,-0.0016,-0.0014,0.0048,0.0048,0.0047,0.0083,0.0085,0.0087,0.0089,0.0148,0.0148,0.0149,0,0,0,0,0,0,0,0,0,0,0,0,0,-0.0051,-0.008,-0.0019,0.0023,0.0029,0.0048,0.0048,0.0047,0.0083,0.0085,0.0088,0.009,0.0148,0.0148,0.0149,0.0104,0,0,0.015,0.015,0,0,0,0,0,0,0,0,-0.0053,-0.0051,0.0015,0.0021,0.0027,0.0074,0.005,0.0071,0.0082,0.0046,0.0088,0.0091,0.0131,0.0133,0.0118,0.0107,0.011,0.015,0.015,0.015,0.015,0,0,0,0,0,0,0,-0.0055,-0.0053,-0.0008,0.0018,0.0025,0.0053,0.0056,0.0053,0.0062,0.0049,0.0056,0.0088,0.0133,0.0118,0.012,0.011,0.015,0.015,0.015,0.015,0.0197,0.0198,0,0,0,0,0,0,-0.0036,-0.0056,-0.001,-0.0004,0.001,0.0053,0.0057,0.0044,0.0063,0.0073,0.0086,0.0089,0.0116,0.012,0.0123,0.0157,0.015,0.015,0.015,0.0196,0.0197,0.0198,0,0,0,0,0,0,-0.0039,-0.0035,-0.0012,-0.0013,-0.0006,0.0053,0.0037,0.0044,0.0039,0.0094,0.0101,0.0077,0.0118,0.0122,0.014,0.0157,0.015,0.015,0.0195,0.0196,0.0198,0.0171,0,0,0,0,0,0,-0.0042,-0.0038,-0.0033,-0.0014,-0.0005,0.0018,0.0037,0.0044,0.0062,0.0067,0.0088,0.0096,0.012,0.0139,0.014,0.0157,0.0151,0.0193,0.0195,0.0197,0.0171,0.0172,0.0173,0,0,0,0,0,-0.0046,-0.0067,-0.0035,-0.0027,-0.0005,0.002,0.0024,0.0065,0.006,0.0062,0.0079,0.0095,0.0155,0.0139,0.014,0.0158,0.0192,0.0195,0.0197,0.017,0.0172,0.0173,0,0,0,0,0,0,-0.0096,-0.0062,-0.0028,-0.0037,0.001,0.0033,0.0044,0.0054,0.006,0.0046,0.0087,0.0096,0.0124,0.014,0.0123,0.0183,0.0184,0.0187,0.0164,0.0165,0.0166,0.0144,0.0151,0,0,0,0,0,-0.01,-0.0103,-0.0052,-0.0051,-0.0033,-0.0001,0.0016,0.0023,0.0039,0.0041,0.0081,0.0107,0.0129,0.0146,0.017,0.018,0.0202,0.0202,0.0203,0.0204,0.019,0.0261,0.0266,0.0206,0.0206,0.0206,0,0,-0.0112,-0.0092,-0.009,-0.0057,-0.003,-0.0022,0.0009,0.0008,0.0017,0.0044,0.0072,0.0102,0.0132,0.0162,0.0177,0.018,0.0229,0.0207,0.0206,0.0192,0.0264,0.027,0.0275,0.0208,0.0208,0.0208,0,0,-0.0138,-0.0129,-0.0129,-0.0107,-0.0064,-0.0051,-0.0051,-0.0021,0.0001,0.0025,0.0053,0.0086,0.0138,0.0164,0.0178,0.0191,0.0229,0.022,0.0206,0.0276,0.0281,0.0285,0.0301,0.0307,0.0225,0.0225,0.0225,0,-0.0134,-0.0148,-0.012,-0.0117,-0.0103,-0.0067,-0.0077,-0.0057,-0.0017,-0.0004,0.004,0.0103,0.0135,0.0148,0.0175,0.0189,0.0228,0.0194,0.0275,0.0281,0.0286,0.0301,0.0308,0.0224,0.0224,0.0224,0.0224,0,-0.017,-0.0164,-0.017,-0.0152,-0.0144,-0.0154,-0.0116,-0.0104,-0.0069,-0.0033,0.0014,0.0071,0.0108,0.0143,0.0165,0.0215,0.0228,0.0263,0.0266,0.029,0.0304,0.0312,0.0223,0.0223,0.0223,0.0223,0,0,-0.019,-0.0187,-0.0185,-0.0184,-0.0177,-0.0184,-0.018,-0.0155,-0.0171,-0.0076,-0.006,0.0018,0.0057,0.0076,0.012,0.0194,0.0266,0.0254,0.0258,0.0255,0.0399,0.0263,0.0259,0.0337,0.0339,0.034,0.0385,0,-0.0202,-0.0218,-0.022,-0.0238,-0.0244,-0.0239,-0.0238,-0.023,-0.0195,-0.0164,-0.0084,-0.005,0.0031,0.0044,0.0134,0.0247,0.0291,0.0248,0.0387,0.0389,0.0256,0.0265,0.0346,0.0391,0.0393,0.0394,0.0395,0,-0.0235,-0.0236,-0.0263,-0.0289,-0.0294,-0.0314,-0.035,-0.0345,-0.0311,-0.0281,-0.0227,-0.0162,-0.0055,0.001,0.021,0.0193,0.0279,0.0366,0.0371,0.0255,0.0269,0.037,0.041,0.0409,0.0408,0.0407,0.0406,0,-0.0267,-0.0277,-0.0305,-0.0313,-0.0331,-0.0358,-0.0375,-0.0383,-0.0394,-0.036,-0.0367,-0.0227,-0.0165,0.0011,0.0178,0.0222,0.0379,0.0456,0.039,0.0381,0.0502,0.0496,0.055,0.055,0.055,0.0549,0.0549,0,-0.0284,-0.031,-0.0327,-0.0335,-0.0403,-0.0406,-0.0473,-0.0482,-0.0488,-0.0516,-0.0427,-0.0428,-0.0148,-0.0036,0.0143,0.0269,0.0347,0.0368,0.0385,0.0486,0.0479,0.0506,0.05,0.0551,0.0551,0.055,0.055,0,-0.0315,-0.0317,-0.0354,-0.0382,-0.0417,-0.0464,-0.054,-0.058,-0.0591,-0.0629,-0.0617,-0.0531,-0.0398,-0.0199,0.0055,0.0177,0.0331,0.0327,0.0355,0.0376,0.0303,0.0296,0.0316,0.0311,0.0308,0.0304,0.0302,0,-0.0335,-0.0348,-0.0403,-0.0442,-0.0459,-0.0534,-0.0596,-0.0628,-0.0658,-0.0706,-0.0711,-0.0653,-0.0581,-0.0318,-0.012,0.0131,0.0158,0.024,0.034,0.0265,0.0281,0.028,0.0278,0.0296,0.0295,0.0294,0.0293,0,-0.0366,-0.0383,-0.0411,-0.048,-0.0548,-0.0635,-0.0703,-0.0728,-0.0763,-0.0788,-0.0768,-0.0683,-0.0598,-0.0365,-0.0235,-0.0039,0.0226,0.0204,0.0216,0.0311,0.0242,0.0261,0.0264,0.028,0.0282,0.0283,0.0284,0,-0.0405,-0.043,-0.046,-0.0524,-0.0617,-0.0694,-0.073,-0.0754,-0.0786,-0.0794,-0.0801,-0.0724,-0.0648,-0.0469,-0.0328,-0.0178,-0.0093,0.0043,0.0066,0.0081,-0.0007,-0.013,-0.0206,0,0,0,0,0,-0.0421,-0.0443,-0.0507,-0.057,-0.0655,-0.0712,-0.079,-0.0804,-0.0835,-0.0808,-0.0789,-0.0717,-0.0563,-0.0509,-0.0375,-0.0402,-0.0089,-0.0243,0.0078,0.0209,0.0224,0.0147,0,0,0,0,0,0,-0.0435,-0.0485,-0.0504,-0.0601,-0.065,-0.0755,-0.0803,-0.0825,-0.0781,-0.0786,-0.0689,-0.067,-0.0508,-0.0628,-0.0367,-0.034,-0.0112,-0.0179,-0.0176,0.0201,0.0214,0.0226,0.0152,0,0,0,0,0]}]]